Location: Bothwell
(42.3833°S, 147.0000°E)
Time: 11:05:16
(UTC+11:00)

RS-44 - Visible Passes

Search period start: 04 December 2023 00:00
Search period end: 14 December 2023 00:00
Orbit: 1174 x 1511 km, 82.5° (Epoch: 03 December)

Date Brightness Start Highest point End Pass type
(mag) Time Alt. Az. Time Alt. Az. Time Alt. Az.
04 Dec ? 01:38:19 23° WNW 01:41:58 35° WSW 01:49:16 10° S visible
04 Dec ? 22:17:04 10° E 22:20:07 13° ESE 22:23:15 10° SE visible
05 Dec ? 00:09:08 44° NNE 00:11:52 75° E 00:20:02 10° SSE visible
05 Dec ? 02:01:41 14° WNW 02:06:18 23° WSW 02:12:27 10° SSW visible
05 Dec ? 22:39:56 17° ENE 22:43:12 22° ESE 22:48:58 10° SSE visible
06 Dec ? 00:32:30 40° NNW 00:35:38 73° W 00:43:53 10° S visible
06 Dec ? 02:26:53 10° W 02:30:52 14° WSW 02:35:00 10° SSW visible
06 Dec ? 23:03:17 26° NE 23:06:28 35° E 23:13:38 10° SSE visible
07 Dec ? 00:55:51 29° NW 00:59:36 48° WSW 01:07:33 10° S visible
07 Dec ? 23:26:37 34° NNE 23:29:54 55° E 23:37:53 10° SSE visible
08 Dec ? 01:19:11 18° WNW 01:23:47 31° WSW 01:30:59 10° S visible
08 Dec ? 21:57:31 10° ENE 22:01:37 15° ESE 22:05:51 10° SE visible
08 Dec ? 23:49:57 37° N 23:53:31 84° E 00:01:54 10° S visible
09 Dec ? 01:42:36 10° WNW 01:48:11 21° WSW 01:54:05 10° SSW visible
09 Dec ? 22:20:40 17° ENE 22:24:44 25° E 22:31:06 10° SSE visible
10 Dec ? 00:13:14 31° NNW 00:17:21 66° WSW 00:25:42 10° S visible
10 Dec ? 02:09:23 10° W 02:12:48 13° SW 02:16:22 10° SSW visible
10 Dec ? 22:43:56 24° NE 22:48:03 40° E 22:55:38 10° SSE visible
11 Dec ? 00:36:30 21° NW 00:41:23 43° WSW 00:49:19 10° S visible
11 Dec ? 23:07:11 28° NNE 23:11:32 62° E 23:19:48 10° SSE visible
12 Dec ? 00:59:44 13° WNW 01:05:38 29° WSW 01:12:42 10° S visible
12 Dec ? 21:38:14 10° ENE 21:43:08 18° ESE 21:48:14 10° SE visible
12 Dec ? 23:30:24 27° N 23:35:13 88° W 23:43:45 10° S visible
13 Dec ? 01:24:47 10° WNW 01:30:06 19° WSW 01:35:41 10° SSW visible
13 Dec ? 22:01:03 14° NE 22:06:19 29° E 22:13:12 10° SSE visible
